sat.trackr.live / text

‹ back to catalog

STARLINK-36697

NORAD 67698 · 2026-025F

PAYLOAD ACTIVE UNKNOWN

§ Identity

Operator
Country
US
Launch date
2026-02-07
Launch site
AFWTR
Launch vehicle
Mass (kg)
RCS (m²)

Purposes: comms

External: N2YO · Heavens-Above · Gunter

§ Orbital elements

Epoch: 2026-09-19T13:28:14.967840Z

Period
93.91 min
Inclination
97.2871°
Eccentricity
0.0000936
Mean motion
15.33454180 rev/d
Perigee alt
464.9 km
Apogee alt
466.2 km
Semi-major
6,843.7 km
B*
4.9661e-4
RAAN
12.5024°
Arg perigee
273.7084°
Mean anomaly
86.4051°
Rev number
3,572

§ Raw data

STARLINK-366971 67698U 26025F   26262.56128435  .00015996  00000+0  49661-3 0  99912 67698  97.2871  12.5024 0000936 273.7084  86.4051 15.33454180 35720

JSON: /api/v1/satellites/67698 · /tle

For live sub-satellite position, see the globe view (requires WebGL).

§ Visibility from observer

Set your observer location to see the next 7 days of passes ≥ 10°. The values pass through the URL so the page stays shareable.

No JS? Fill the form by hand. The geolocation button needs JavaScript.